TimeEDT,TemperatureF,Dew PointF,Humidity,Sea Level PressureIn,VisibilityMPH,Wind Direction,Wind SpeedMPH,Gust SpeedMPH,PrecipitationIn,Events,Conditions,WindDirDegrees,DateUTC
12:54 AM,26.1,19.0,75,29.84,8.0,WSW,10.4,-,0.00,Snow,Light Snow,250,2013-03-20 04:54:00
1:54 AM,25.0,19.0,78,29.85,6.0,West,13.8,25.3,0.00,Snow,Light Snow,260,2013-03-20 05:54:00
2:54 AM,25.0,19.0,78,29.84,6.0,West,12.7,20.7,0.00,Snow,Light Snow,260,2013-03-20 06:54:00
3:54 AM,25.0,18.0,75,29.83,9.0,West,18.4,26.5,0.00,,Overcast,260,2013-03-20 07:54:00
4:54 AM,25.0,18.0,75,29.84,9.0,West,12.7,-,0.00,Snow,Light Snow,260,2013-03-20 08:54:00
5:54 AM,25.0,18.0,75,29.82,10.0,WSW,12.7,-,0.00,,Mostly Cloudy,250,2013-03-20 09:54:00
6:54 AM,26.1,19.0,75,29.83,10.0,WSW,13.8,-,N/A,,Mostly Cloudy,250,2013-03-20 10:54:00
7:54 AM,26.1,18.0,71,29.83,10.0,West,13.8,-,N/A,,Mostly Cloudy,260,2013-03-20 11:54:00
8:54 AM,28.0,18.0,66,29.83,10.0,West,19.6,28.8,N/A,,Overcast,270,2013-03-20 12:54:00
9:54 AM,30.0,18.0,61,29.83,10.0,WSW,20.7,-,0.00,,Scattered Clouds,250,2013-03-20 13:54:00
10:54 AM,30.9,17.1,57,29.82,10.0,West,21.9,31.1,N/A,,Scattered Clouds,260,2013-03-20 14:54:00
11:54 AM,34.0,17.1,50,29.81,10.0,WSW,20.7,32.2,N/A,,Mostly Cloudy,250,2013-03-20 15:54:00
12:54 PM,33.1,19.0,56,29.81,10.0,West,12.7,23.0,N/A,,Mostly Cloudy,270,2013-03-20 16:54:00
1:54 PM,33.1,16.0,50,29.81,9.0,West,20.7,32.2,0.00,Snow,Light Snow,270,2013-03-20 17:54:00
2:54 PM,33.1,16.0,50,29.80,9.0,West,15.0,23.0,0.00,,Overcast,270,2013-03-20 18:54:00
3:54 PM,33.1,21.0,61,29.81,7.0,WSW,15.0,26.5,0.00,Snow,Light Snow,250,2013-03-20 19:54:00
4:54 PM,32.0,19.0,59,29.82,9.0,West,16.1,21.9,0.00,Snow,Light Snow,260,2013-03-20 20:54:00
5:28 PM,28.4,21.2,74,29.80,5.0,West,16.1,23.0,0.00,Snow,Light Snow,260,2013-03-20 21:28:00
5:54 PM,28.0,21.9,78,29.83,5.0,West,16.1,-,0.00,Snow,Light Snow,270,2013-03-20 21:54:00
6:08 PM,28.4,23.0,80,29.81,1.8,West,17.3,25.3,0.00,Snow,Light Snow,260,2013-03-20 22:08:00
6:11 PM,28.4,23.0,80,29.81,0.5,West,15.0,25.3,0.00,Snow,Snow,260,2013-03-20 22:11:00
6:16 PM,26.6,23.0,86,29.81,1.0,West,15.0,-,0.00,Snow,Light Snow,270,2013-03-20 22:16:00
6:31 PM,28.4,23.0,80,29.81,3.0,West,12.7,-,0.00,Snow,Light Snow,260,2013-03-20 22:31:00
6:34 PM,28.4,23.0,80,29.81,1.5,West,15.0,-,0.00,Snow,Light Snow,260,2013-03-20 22:34:00
6:38 PM,26.6,23.0,86,29.81,0.8,WSW,17.3,-,0.00,Snow,Light Snow,250,2013-03-20 22:38:00
6:42 PM,26.6,23.0,86,29.81,1.2,WSW,13.8,-,0.00,Snow,Light Snow,250,2013-03-20 22:42:00
6:54 PM,27.0,23.0,85,29.83,1.2,West,10.4,20.7,0.00,Snow,Light Snow,260,2013-03-20 22:54:00
7:08 PM,26.6,21.2,80,29.81,2.0,WSW,10.4,20.7,0.00,Snow,Light Snow,250,2013-03-20 23:08:00
7:20 PM,26.6,21.2,80,29.81,3.0,West,8.1,-,0.00,Snow,Light Snow,260,2013-03-20 23:20:00
7:54 PM,27.0,19.0,72,29.84,10.0,West,9.2,-,0.00,,Mostly Cloudy,270,2013-03-20 23:54:00
8:54 PM,27.0,19.9,75,29.85,9.0,West,9.2,-,0.00,Snow,Light Snow,270,2013-03-21 00:54:00
9:54 PM,25.0,19.0,78,29.85,10.0,SW,9.2,-,0.00,,Mostly Cloudy,230,2013-03-21 01:54:00
10:54 PM,23.0,17.1,78,29.85,10.0,WSW,8.1,-,N/A,,Clear,240,2013-03-21 02:54:00
11:54 PM,21.9,16.0,78,29.85,10.0,SW,10.4,-,N/A,,Clear,230,2013-03-21 03:54:00